Regional Weather Roundup
Issued by NWS

Home | Current Version | Previous Version | Graphics & Text | Print | Product List | Glossary On
Versions: 1 2 3 4 5 6 7 8 9 10 11 12 13 14 15 16 17 18 19 20 21 22 23 24 25 26 27 28 29 30 31 32 33 34 35 36 37 38 39 40 41 42 43 44 45 46 47 48 49 50
000
ASUS43 KMKX 041059
RWRWI

WISCONSIN REGIONAL WEATHER ROUNDUP
NATIONAL WEATHER SERVICE MILWAUKEE/SULLIVAN WI
500 AM CST WED MAR 04 2015

NOTE: "FAIR" INDICATES FEW OR NO CLOUDS BELOW 12,000 FEET WITH NO
SIGNIFICANT WEATHER AND/OR OBSTRUCTIONS TO VISIBILITY.

WIZ001-002-006>008-014>016-023>028-041200-
NORTHWEST WISCONSIN

CITY           SKY/WX    TMP DP  RH WIND       PRES   REMARKS
SUPERIOR ARPT  CLEAR     -4 -12  70 SW3       30.04R
ASHLAND        CLEAR     -2 -11  65 W12       30.00R WCI -20
HAYWARD        CLEAR     -3 -12  65 W5        29.99R WCI -13
SIREN          CLEAR     -4  -9  78 W7        30.05R WCI -17
CUMBERLAND     CLEAR     -6 -11  77 W9        30.01R WCI -22
RICE LAKE      CLEAR     -3  -9  75 W7        30.04R WCI -16
CHETEK         CLEAR     -1  -8  72 W7        30.03R WCI -14
LADYSMITH      CLEAR     -1 -10  66 W8        30.00R WCI -16
EAU CLAIRE     NOT AVBL
MENOMONIE      CLEAR      2  -7  65 W12       30.06R WCI -14
NEW RICHMOND   CLEAR     -2  -8  73 W9        30.07R WCI -17
OSCEOLA        CLEAR     -2  -8  74 W8        30.11R WCI -17
$$

WIZ003>005-009-010-017-018-041200-
NORTH CENTRAL WISCONSIN

CITY           SKY/WX    TMP DP  RH WIND       PRES   REMARKS
MANITOWISH WTR CLEAR     -3  -9  75 W8        29.86R WCI -18
ARBOR VITAE    FAIR       1  -6  69 W6        29.87R WCI -10
WOODRUFF       FAIR       1  -6  69 W6        29.87R WCI -10
RHINELANDER    CLEAR     -1 -10  65 W13G21    29.87R WCI -19
EAGLE RIVER    CLEAR      0  -8  70 W10       29.84R WCI -16
LAND O LAKES   FAIR       1  -6  74 W9        29.84R WCI -15
PHILLIPS       CLEAR     -3 -11  70 W5        29.92R WCI -14
TOMAHAWK       CLEAR      0  -9  65 W3G20     29.91R
MEDFORD        CLEAR      0  -8  68 W12       29.93R WCI -17
MERRILL        CLEAR      3  -8  60 NW10G17   29.92R WCI -13
$$

WIZ029-030-035-036-043>047-041200-
CENTRAL WISCONSIN

CITY           SKY/WX    TMP DP  RH WIND       PRES   REMARKS
WAUSAU         CLEAR      3  -6  66 NW12      29.92R WCI -13
MOSINEE        CLEAR      3  -4  72 W13       29.95R WCI -14
MARSHFIELD     CLEAR      3  -5  69 NW14      29.96R WCI -15
STEVENS POINT  CLEAR      4  -5  65 W9        29.96R WCI -10
WAUPACA        PTCLDY    12   0  60 W13G20    29.96R WCI  -3
WAUTOMA        NOT AVBL
WISC RAPIDS    CLEAR      5  -6  60 NW12      30.00R WCI -11
CAMP DOUGLAS   NOT AVBL
$$

WIZ011>013-019>022-031-037>040-048>050-041200-
NORTHEAST WISCONSIN

CITY           SKY/WX    TMP DP  RH WIND       PRES   REMARKS
ANTIGO         CLEAR      3  -3  75 NW12      29.87R WCI -13
SHAWANO        PTCLDY    13   1  58 NW9       29.93R WCI   1
OCONTO         PTCLDY    12   1  60 W7        29.91R WCI   1
STURGEON BAY   CLEAR     10   0  61 W13       29.91R WCI  -5
GREEN BAY      PTCLDY    13   3  64 W9        29.94R WCI   1
MANITOWOC      NOT AVBL
APPLETON       NOT AVBL
CLINTONVILLE   PTCLDY    12   1  62 W12       29.94R WCI  -2
OSHKOSH        CLEAR     11   2  67 W9        29.96R WCI  -2
$$

WIZ032>034-041-042-053>061-041200-
SOUTHWEST WISCONSIN

CITY           SKY/WX    TMP DP  RH WIND       PRES   REMARKS
LA CROSSE      PTCLDY     8  -1  66 NW13      30.10R WCI  -8
SPARTA         CLEAR      8  -2  63 NW14      30.05R WCI  -8
VIROQUA        PTCLDY     6  -1  74 NW9       30.00R WCI  -8
BOSCOBEL       CLEAR     10  -1  61 W6        30.10R WCI   0
PRAIRIE DU CHI PTCLDY     9  -2  62 W16       30.09R WCI  -9
PLATTEVILLE    PTCLDY    11   4  74 W12       30.03R WCI  -3
$$

WIZ056-057-062-063-064-067-068-041200-
SOUTH CENTRAL WISCONSIN

CITY           SKY/WX    TMP DP  RH WIND       PRES   REMARKS
REEDSBURG      CLEAR     10   2  71 NW8       30.00R WCI  -2
BARABOO/DELLS  CLEAR     10   0  62 NW8       29.99R WCI  -2
LONE ROCK      NOT AVBL
MINERAL POINT  PTCLDY    12   3  67 NW8       30.01R WCI   1
MADISON        MOCLDY    13   4  67 W8        30.00R WCI   2
MIDDLETON      CLEAR     14   4  64 NW10      30.00R WCI   1
WATERTOWN      PTCLDY    15   6  69 NW8       29.97R WCI   3
MONROE         PTCLDY    14   9  79 NW9       29.98R WCI   2
JANESVILLE     PTCLDY    18   9  68 NW12      29.98R WCI   5
$$

WIZ051-052-058>065-066-070>072-041200-
SOUTHEAST WISCONSIN

CITY           SKY/WX    TMP DP  RH WIND       PRES   REMARKS
MILWAUKEE      CLEAR     19   7  59 NW15G21   29.96R WCI   5
WAUKESHA       CLEAR     16   7  67 NW17      29.96R WCI   0
MILWAUKEE/TIMM CLEAR     18   9  68 W8        29.96R WCI   7
RACINE         PTCLDY    20   9  62 NW9       29.97R WCI   9
BURLINGTON     CLEAR     15   9  76 NW14      29.96R WCI   0
KENOSHA        FAIR      19   9  65 NW10      29.95R WCI   7
FOND DU LAC    CLEAR     12   2  64 W12       29.97R WCI  -2
SHEBOYGAN      CLEAR     14   5  67 NW13      29.94R WCI   0
WEST BEND      CLEAR     14   5  67 W10G17    29.94R WCI   1
JUNEAU         CLEAR     12   2  66 NW8       29.97R WCI   0
$$

LSZ147-162-041200-
LAKE SUPERIOR

STATION/POSITION TIME  TEMP    WIND        PRES    WAVE
                       AIR SEA DIR/SP/G            HT/PER
                 (UTC) (F)     (DEG/KT/KT) (MB)    (FT/S)
DEVILS ISLAND    1000    4     280/ 24/ 27 1015.7R
PORT WING        1000    4     280/ 16/ 23 1015.6
SAXON HARBOR     1040    1     230/  5/ 10 1015.6R
$$

LMZ867-665-643>646-041200-
LAKE MICHIGAN

STATION/POSITION TIME  TEMP    WIND        PRES    WAVE
                       AIR SEA DIR/SP/G            HT/PER
                 (UTC) (F)     (DEG/KT/KT) (MB)    (FT/S)
NORTHPORT PIER   1004   14     280/  9/ 18 1011.2R
SISTER BAY       1013   11     310/ 13/ 14   N/A
KEWAUNEE LAKESHO 1000   17     300/ 14/ 24 1011.0R
SHEBOYGAN LAKESH 1000   18     290/ 14/ 18 1014.0R
PORT WASHINGTON  1000   19     300/  6/ 14 1013.9R
MILWAUKEE LAKESH 1000   22     300/ 13/ 17   N/A
KENOSHA   LAKESH 1000   24     300/  8/ 11 1013.2R
$$

TC  - TEMPERATURE IN CELSIUS
VSB - VISIBILITY IN STATUTE MILES
WCI - WIND CHILL INDEX
HX  - HEAT INDEX



USA.gov is the U.S. government's official web portal to all federal, state and local government web resources and services.